Wind_Speed
62 63 64 65 66 67 68 69 70 72 73 73 73 72 72 71 71 72 71 71 71 71 72 73 74 74 75 75 75 76 76 77 78 78 79 79 80 81 81 81 81 81 81 81 81 82 82 82 81 81 81 80
64 64 65 64 65 66 67 69 70 71 73 74 75 75 75 75 74 74 74 74 74 74 73 73 74 74 74 75 75 75 76 76 77 78 78 79 79 80 81 81 82 82 82 82 83 83 83 83 83 83 83 82
67 67 66 64 64 64 66 68 70 71 72 74 75 76 77 77 77 77 77 77 77 77 76 76 76 76 76 76 76 76 77 77 77 78 78 79 79 80 81 81 82 82 83 83 84 84 84 84 84 84 84 84
70 70 69 67 67 67 67 68 70 71 72 73 74 76 77 78 79 79 80 80 80 80 80 79 79 79 79 79 78 78 79 79 79 79 79 80 80 81 81 82 82 83 83 84 84 85 85 85 85 85 85 85
72 73 73 72 72 72 72 71 71 72 72 73 74 75 76 77 78 79 80 81 81 82 82 82 82 82 82 82 81 81 81 81 82 81 81 82 82 82 82 83 83 84 84 85 85 86 86 86 86 86 86 87
72 74 75 75 75 74 74 73 73 73 74 74 75 76 77 78 78 79 80 81 82 82 83 83 84 84 84 84 85 85 84 85 85 84 85 85 84 85 85 85 85 85 85 86 86 87 87 87 88 88 88 88
72 73 74 75 76 75 75 75 75 75 76 76 76 77 78 79 80 81 81 82 82 83 83 84 84 85 85 86 86 87 87 87 87 87 87 88 88 88 88 88 88 88 87 87 88 88 88 88 89 90 90 90
73 73 74 75 76 76 76 76 76 77 78 78 78 79 80 81 81 82 83 83 84 84 85 85 85 86 86 87 87 88 88 89 89 89 90 90 90 90 90 90 91 91 91 91 90 90 90 90 91 91 91 92
74 75 76 76 76 77 77 77 78 78 79 79 80 80 81 82 83 83 84 85 85 86 86 87 87 87 88 88 89 89 90 90 91 91 91 92 92 92 92 93 93 93 93 93 93 93 93 93 93 93 93 93
75 76 76 76 77 78 77 78 78 78 79 80 80 81 81 82 83 84 85 86 86 87 88 88 89 89 90 90 90 91 91 92 92 93 93 94 94 94 95 95 95 95 95 95 95 95 95 95 95 95 95 96
77 77 77 78 78 78 79 79 79 79 79 80 80 81 82 82 83 84 85 86 87 88 89 89 90 91 91 92 92 93 93 94 94 95 95 95 96 96 97 97 97 97 97 97 97 98 98 98 98 98 98 98
79 79 79 80 80 80 81 81 81 81 81 81 82 82 83 83 84 84 85 86 87 88 89 90 90 91 92 93 94 94 95 96 96 97 97 97 98 98 99 99 100 100 100 100 100 100 100 100 100 100 100 100
80 81 81 81 82 82 83 83 83 84 84 85 85 85 86 86 86 86 87 88 88 89 90 90 91 91 92 93 94 95 96 97 98 98 99 100 100 101 101 102 102 102 103 103 103 103 103 103 103 103 103 103
83 83 83 83 84 84 85 85 86 87 87 88 88 88 89 89 89 89 90 90 91 91 91 92 92 93 93 94 95 96 97 98 99 100 101 101 102 103 103 104 104 105 105 105 106 106 106 106 107 107 107 107
87 86 86 86 86 87 87 88 88 89 90 90 90 91 91 92 92 92 92 93 93 93 93 94 94 94 95 96 96 97 98 99 99 100 101 102 103 104 105 106 107 107 108 108 108 109 109 110 110 110 110 111
88 89 89 89 89 89 90 90 91 91 92 92 92 93 93 94 94 94 94 95 95 95 95 96 96 96 97 97 98 99 100 100 101 101 102 103 104 105 106 107 108 108 109 110 111 111 112 112 113 113 114 114
89 90 90 90 91 92 92 93 93 94 94 95 95 95 95 96 96 96 96 97 97 97 97 97 98 98 99 100 100 101 102 102 103 103 104 104 105 106 107 108 108 109 110 111 112 113 114 115 115 116 116 117
91 91 92 92 93 94 94 95 96 96 97 97 97 97 98 99 99 99 99 99 100 100 100 100 101 101 102 102 103 104 104 105 105 106 106 107 107 108 109 109 110 111 112 113 113 114 115 116 116 117 118 118
92 93 94 95 96 96 97 98 98 99 100 100 100 100 100 101 102 102 102 102 103 103 103 104 104 105 105 106 106 107 107 108 108 109 109 110 110 111 111 112 112 113 114 114 115 116 116 117 118 118 119 120
93 95 96 97 98 99 100 101 102 102 103 104 104 104 104 104 105 106 106 106 107 107 108 108 108 108 109 110 110 111 111 111 111 112 112 113 113 114 114 115 115 116 116 117 117 118 118 119 119 120 120 121
95 97 97 98 99 100 101 102 103 104 105 106 106 107 107 108 109 109 109 110 110 111 111 112 112 113 113 114 115 115 115 115 115 115 116 116 117 117 118 118 118 119 119 120 120 121 121 122 122 123 123 124
98 99 100 101 101 102 102 103 104 104 105 106 107 108 108 109 109 110 111 111 112 112 113 113 114 115 116 117 117 118 118 118 119 119 119 120 120 121 121 121 122 122 123 123 124 124 124 125 125 126 126 127
101 102 103 104 105 105 106 106 106 106 107 109 109 110 110 110 111 111 112 112 112 113 114 115 116 116 118 119 119 120 120 121 121 122 122 123 123 124 124 125 125 126 126 126 127 127 128 128 129 129 130 130
105 105 106 107 108 109 109 109 109 110 111 112 113 113 113 114 114 114 114 114 115 115 116 117 118 119 120 121 122 122 123 123 124 124 125 126 126 127 127 128 128 129 129 130 130 131 131 131 132 132 133 133
108 109 110 111 111 112 112 113 113 114 114 115 116 117 117 118 117 117 117 118 118 119 120 121 122 122 123 124 125 125 126 126 127 128 128 129 129 130 130 131 131 131 132 132 133 134 134 134 135 135 136 136
109 110 111 112 112 114 114 115 115 115 116 117 118 119 119 120 119 119 119 120 120 121 122 122 123 123 123 124 124 125 125 125 126 126 127 127 127 128 128 128 128 129 129 130 131 131 132 132 132 133 134 134
106 107 108 109 110 111 112 112 113 114 114 115 116 116 117 117 116 116 116 116 116 116 116 117 117 117 117 117 117 118 118 118 118 118 119 119 119 120 120 120 121 121 122 122 123 124 124 125 125 125 126 127
98 99 100 101 102 103 104 104 105 105 106 107 108 108 108 108 108 108 108 108 108 107 108 108 108 108 108 108 109 109 109 110 110 110 110 111 111 111 112 113 113 114 114 115 116 116 117 118 118 118 119 119
87 88 89 89 90 91 92 93 94 95 96 97 97 97 98 98 99 99 100 100 100 100 100 100 101 101 101 101 102 103 103 104 104 104 104 105 105 105 106 107 108 108 109 110 110 111 112 113 113 113 114 114
82 82 83 83 83 84 85 86 87 89 90 89 89 90 91 92 93 94 94 95 95 95 95 95 96 96 97 97 98 98 99 100 101 101 101 101 101 102 103 104 104 105 106 106 107 109 110 110 110 110 111 111
80 80 81 81 81 82 82 83 85 87 87 86 86 87 88 89 91 91 92 92 93 93 93 93 94 94 95 95 95 96 96 97 99 99 99 99 99 100 101 101 102 104 105 105 106 107 108 108 109 109 109 110
Wind_Direction
251 251 251 251 250 250 250 249 248 248 248 248 247 246 246 245 245 246 246 246 247 247 248 248 249 250 250 251 252 253 253 254 254 255 255 255 255 255 255 256 256 256 257 257 258 258 258 259 259 259 259 259
252 253 253 252 251 251 251 251 250 249 249 249 249 248 248 247 247 247 247 247 247 247 247 248 248 249 250 250 251 252 253 253 254 255 255 256 256 256 256 256 256 256 257 257 257 258 258 258 259 259 259 259
251 252 252 251 251 250 251 252 252 251 250 250 249 249 249 249 249 249 249 249 249 248 248 248 249 249 249 250 250 251 252 253 253 254 255 255 256 256 256 256 257 257 257 257 257 257 258 258 258 258 258 258
252 251 251 251 251 251 252 252 252 252 251 251 250 250 250 250 250 250 250 250 250 250 250 250 250 250 250 250 251 251 251 252 252 253 253 254 255 255 256 256 256 256 256 257 257 257 257 257 257 257 257 257
254 252 251 252 252 252 252 252 252 251 251 251 251 251 251 251 251 251 251 251 251 252 252 252 252 252 252 252 252 252 252 252 253 253 253 254 254 254 255 255 255 256 256 256 256 256 256 256 257 257 257 257
254 254 253 253 253 253 253 252 251 251 251 251 251 251 251 251 251 251 251 252 252 252 253 253 253 253 253 253 253 253 253 253 254 254 254 254 254 255 255 255 255 255 255 255 255 256 256 256 256 256 257 257
254 253 253 253 253 253 253 253 252 251 251 251 251 251 251 251 251 251 252 252 252 252 253 253 254 254 254 254 254 254 254 254 255 255 255 255 255 255 256 256 256 256 256 256 256 256 256 256 256 256 256 256
254 254 253 253 253 253 253 253 253 252 252 252 251 251 252 252 252 252 252 252 252 253 253 253 254 254 254 255 255 255 255 255 255 255 255 256 256 256 256 257 257 257 257 257 257 257 257 257 256 256 256 256
256 256 255 254 254 253 253 253 253 253 253 253 253 252 252 253 253 253 253 253 253 253 253 254 254 254 254 255 255 255 255 255 255 255 255 256 256 256 257 257 257 257 258 258 258 258 257 257 257 257 257 257
257 257 257 256 255 255 254 254 253 253 254 254 254 254 254 254 254 254 254 254 254 254 254 254 255 255 255 255 255 255 256 256 256 256 256 256 256 256 257 257 257 257 258 258 258 258 258 258 258 258 258 258
259 259 259 258 257 256 256 255 254 254 254 254 254 255 254 254 254 255 255 255 255 255 255 255 255 255 255 256 256 256 256 256 256 256 256 256 256 256 257 257 257 257 257 258 258 258 258 258 258 258 258 258
259 259 260 260 259 259 258 257 257 256 256 256 256 256 256 256 256 256 256 256 256 256 256 256 256 256 256 256 257 257 257 257 257 257 257 257 257 257 257 257 257 257 257 257 257 258 258 258 258 258 258 258
259 259 260 260 260 261 260 260 260 259 259 259 259 259 259 259 258 258 258 258 258 257 257 257 257 257 257 258 258 258 258 258 258 258 258 258 258 258 257 257 257 257 257 257 257 258 258 258 258 258 258 258
260 260 260 260 260 260 260 261 261 261 261 261 261 261 261 261 261 261 261 260 260 260 260 259 259 259 259 259 259 259 259 259 259 259 259 258 258 258 258 258 258 258 258 258 258 258 258 258 258 258 258 258
261 261 260 260 260 260 260 260 260 261 261 261 261 262 262 262 262 262 262 262 262 262 262 262 261 261 261 261 261 260 260 260 260 260 260 260 259 259 259 259 259 259 259 259 258 258 258 258 258 258 258 258
262 262 262 262 261 261 261 261 261 261 262 262 262 262 263 263 263 263 263 263 263 263 263 263 263 263 262 262 262 262 262 261 261 261 261 261 261 261 260 260 260 260 260 259 259 259 259 258 258 258 258 258
262 262 262 262 262 262 262 262 262 262 262 262 263 263 263 263 264 264 264 264 264 264 263 264 264 264 264 263 263 263 263 263 263 263 262 262 262 262 262 261 261 261 261 260 260 260 259 259 259 259 259 259
261 261 262 262 262 262 262 262 262 262 262 262 263 263 263 263 264 264 264 264 264 264 264 264 264 264 264 264 265 265 264 264 264 264 264 264 263 263 263 262 262 262 262 261 261 261 261 260 260 260 260 259
260 260 261 261 261 261 261 261 261 261 262 262 262 262 262 262 263 263 263 263 264 264 264 264 265 265 265 265 266 266 266 266 266 266 265 265 265 264 264 264 263 263 263 263 262 262 262 261 261 261 261 260
259 260 260 260 260 260 260 260 261 261 261 261 261 261 262 262 262 262 263 263 264 264 264 264 265 265 265 266 266 266 266 266 266 267 266 266 266 266 266 265 265 265 264 264 264 263 263 263 263 262 262 262
260 260 260 260 260 260 260 260 260 261 261 262 262 262 262 262 262 263 263 263 263 264 264 264 265 265 265 265 265 266 266 266 266 266 266 266 266 266 266 266 266 266 265 265 265 265 265 264 264 264 263 263
263 263 263 262 262 262 262 262 262 262 263 263 263 263 262 262 263 263 263 263 263 264 264 264 265 265 265 265 265 266 266 266 266 266 266 266 266 266 266 266 266 266 266 266 266 265 265 265 265 265 264 264
264 264 265 265 265 265 265 265 265 265 265 265 265 265 265 264 264 264 264 264 265 265 265 266 266 266 266 266 266 266 267 267 267 267 267 267 267 267 267 267 266 266 266 266 266 266 266 265 265 265 265 265
264 264 264 264 265 265 266 266 266 266 266 266 266 267 266 266 266 266 266 267 267 267 267 267 267 267 267 268 268 268 268 268 268 268 268 268 268 268 268 267 267 267 267 267 267 266 266 266 266 266 265 265
263 263 263 264 264 265 265 265 266 266 266 266 267 267 267 267 267 267 268 268 268 268 268 268 268 268 268 268 269 269 269 269 269 269 269 269 268 268 268 268 268 268 268 268 267 267 267 267 266 266 266 266
263 263 264 264 264 265 265 265 265 266 266 266 267 267 267 267 268 268 268 268 268 268 268 268 268 268 268 268 269 269 268 268 268 268 268 268 268 268 268 268 268 268 268 267 267 267 267 267 267 266 266 266
264 264 264 265 265 265 265 266 266 266 266 267 267 267 267 268 268 268 268 268 268 268 268 268 268 268 268 268 268 268 268 268 268 267 267 267 267 267 267 267 267 267 267 267 267 267 267 266 266 266 266 266
264 265 265 265 266 266 266 266 267 267 267 267 267 268 268 268 268 268 268 268 268 268 268 268 268 268 268 268 268 267 267 267 267 267 267 267 267 267 267 267 267 267 266 266 266 266 266 266 265 265 265 265
265 265 265 266 266 267 267 267 267 267 267 267 268 268 268 268 268 268 268 267 267 267 267 267 267 268 267 267 267 267 267 267 267 267 267 267 267 267 267 266 266 266 266 266 266 266 266 265 265 265 265 265
266 267 267 267 267 268 268 268 268 267 267 268 268 268 268 268 268 268 268 268 268 267 267 267 267 267 267 267 267 267 267 267 267 266 266 266 266 266 266 266 266 266 266 266 266 265 265 265 265 265 265 265
267 267 267 267 267 268 268 268 268 268 268 268 268 268 268 268 268 268 268 268 268 268 268 267 267 267 266 266 266 266 266 266 266 266 266 265 265 265 265 266 266 266 266 265 265 265 265 265 265 265 265 264
Height
10722 10722 10722 10723 10725 10726 10726 10727 10728 10728 10729 10730 10731 10733 10734 10735 10736 10737 10737 10738 10740 10741 10742 10742 10743 10744 10745 10746 10746 10747 10747 10748 10749 10749 10750 10752 10753 10754 10755 10756 10757 10758 10759 10761 10761 10762 10763 10764 10765 10766 10768 10769
10715 10716 10716 10717 10719 10719 10720 10720 10721 10722 10722 10723 10724 10726 10727 10728 10729 10729 10730 10731 10732 10733 10735 10735 10736 10737 10738 10739 10739 10740 10741 10741 10742 10742 10743 10744 10745 10746 10747 10749 10750 10751 10752 10753 10754 10755 10756 10757 10758 10759 10760 10761
10709 10709 10710 10711 10712 10712 10713 10713 10714 10714 10715 10716 10717 10718 10719 10720 10721 10722 10722 10723 10725 10726 10727 10728 10729 10730 10731 10731 10732 10733 10734 10734 10735 10735 10736 10737 10738 10739 10740 10741 10742 10743 10744 10745 10746 10747 10748 10749 10750 10751 10752 10753
10702 10703 10704 10704 10705 10705 10706 10706 10707 10707 10708 10709 10710 10711 10712 10712 10713 10714 10715 10716 10716 10718 10719 10720 10721 10722 10723 10724 10725 10726 10726 10727 10727 10728 10729 10729 10730 10731 10732 10733 10734 10734 10735 10736 10738 10739 10739 10740 10741 10742 10744 10745
10695 10696 10696 10697 10697 10698 10698 10699 10699 10700 10700 10701 10702 10703 10704 10704 10705 10706 10707 10707 10708 10709 10710 10711 10712 10714 10715 10716 10716 10717 10718 10719 10719 10720 10721 10721 10722 10723 10723 10724 10725 10726 10727 10728 10729 10730 10731 10732 10733 10734 10735 10737
10688 10688 10688 10689 10689 10690 10690 10691 10692 10692 10693 10694 10695 10695 10695 10696 10697 10698 10698 10699 10700 10701 10702 10703 10704 10705 10706 10707 10708 10709 10710 10710 10711 10712 10712 10713 10714 10714 10715 10716 10716 10717 10718 10719 10720 10721 10722 10723 10724 10725 10726 10728
10680 10680 10680 10680 10681 10682 10682 10683 10684 10684 10685 10686 10687 10687 10687 10688 10688 10689 10690 10691 10692 10693 10693 10694 10695 10696 10697 10698 10699 10700 10701 10701 10702 10703 10703 10704 10705 10705 10706 10707 10707 10708 10709 10709 10711 10712 10713 10714 10715 10716 10717 10718
10672 10672 10672 10672 10673 10674 10675 10676 10676 10676 10677 10678 10679 10679 10680 10680 10680 10681 10682 10683 10684 10684 10685 10686 10686 10687 10688 10689 10689 10691 10691 10692 10693 10694 10694 10695 10695 10696 10696 10697 10698 10699 10699 10700 10701 10702 10703 10704 10705 10706 10708 10709
10664 10664 10664 10665 10665 10666 10667 10668 10668 10669 10669 10670 10670 10671 10672 10672 10672 10673 10674 10674 10675 10675 10676 10677 10678 10679 10679 10680 10680 10681 10682 10683 10683 10684 10685 10685 10686 10686 10687 10688 10688 10689 10690 10690 10691 10692 10693 10694 10695 10696 10698 10699
10656 10656 10656 10657 10657 10658 10659 10659 10660 10661 10661 10661 10662 10662 10664 10664 10664 10664 10665 10666 10666 10666 10668 10669 10669 10670 10670 10671 10671 10672 10673 10673 10674 10675 10675 10676 10677 10677 10677 10678 10679 10680 10680 10681 10681 10682 10683 10684 10685 10686 10687 10688
10648 10648 10648 10648 10648 10650 10650 10650 10652 10653 10653 10653 10653 10653 10654 10655 10656 10656 10656 10657 10658 10658 10658 10659 10660 10661 10661 10662 10662 10662 10663 10664 10664 10665 10665 10666 10667 10667 10667 10668 10669 10669 10670 10671 10671 10672 10673 10674 10675 10676 10677 10678
10640 10640 10640 10640 10641 10641 10641 10642 10643 10644 10644 10644 10645 10645 10645 10646 10647 10647 10647 10647 10648 10648 10648 10650 10651 10651 10652 10652 10652 10652 10653 10654 10654 10654 10655 10655 10656 10656 10657 10657 10658 10659 10660 10660 10661 10661 10662 10663 10664 10665 10666 10667
10632 10633 10632 10632 10633 10633 10633 10634 10635 10635 10635 10635 10636 10636 10635 10636 10637 10638 10638 10638 10638 10639 10639 10639 10641 10642 10642 10642 10642 10642 10643 10643 10643 10643 10644 10644 10644 10645 10646 10646 10647 10647 10648 10649 10650 10650 10651 10652 10653 10654 10655 10656
10624 10624 10624 10624 10625 10624 10624 10625 10625 10625 10625 10625 10626 10626 10625 10626 10627 10628 10628 10628 10628 10629 10629 10629 10630 10631 10631 10631 10631 10631 10631 10631 10632 10632 10632 10632 10633 10633 10634 10635 10635 10636 10637 10638 10638 10639 10640 10640 10641 10642 10643 10644
10614 10615 10615 10615 10615 10614 10614 10615 10615 10615 10615 10615 10616 10616 10615 10615 10616 10617 10617 10617 10617 10618 10618 10618 10618 10619 10620 10619 10619 10619 10619 10619 10620 10620 10620 10620 10621 10621 10622 10623 10623 10624 10624 10625 10626 10627 10627 10628 10629 10629 10630 10631
10605 10604 10605 10605 10605 10605 10605 10605 10605 10605 10605 10605 10606 10606 10605 10604 10605 10605 10606 10606 10606 10606 10606 10606 10607 10607 10607 10607 10607 10607 10607 10607 10607 10608 10608 10608 10609 10609 10610 10610 10611 10611 10611 10612 10612 10613 10614 10615 10616 10616 10617 10618
10595 10594 10595 10596 10596 10596 10595 10595 10595 10595 10594 10595 10596 10596 10594 10593 10593 10594 10594 10594 10593 10594 10595 10595 10595 10595 10594 10594 10595 10594 10594 10595 10595 10595 10596 10596 10596 10596 10597 10597 10597 10598 10598 10598 10599 10599 10600 10601 10602 10603 10604 10605
10585 10585 10586 10586 10586 10585 10585 10584 10583 10583 10582 10583 10585 10585 10584 10582 10582 10583 10583 10583 10582 10582 10583 10583 10583 10583 10582 10582 10582 10582 10582 10582 10582 10583 10583 10583 10583 10583 10583 10584 10584 10584 10585 10584 10585 10586 10586 10587 10588 10589 10591 10592
10575 10575 10575 10575 10575 10574 10573 10572 10572 10571 10570 10571 10573 10574 10573 10572 10571 10571 10571 10571 10571 10571 10571 10571 10571 10571 10571 10570 10570 10569 10569 10570 10570 10570 10571 10570 10570 10570 10570 10570 10570 10571 10570 10570 10571 10572 10572 10573 10574 10575 10576 10577
10565 10564 10563 10563 10563 10563 10562 10561 10560 10559 10558 10558 10560 10562 10563 10562 10560 10559 10560 10561 10560 10559 10559 10559 10559 10559 10559 10557 10557 10557 10556 10557 10557 10557 10557 10557 10556 10556 10556 10556 10556 10556 10556 10556 10556 10557 10558 10558 10559 10560 10561 10561
10554 10552 10552 10551 10551 10551 10551 10549 10548 10548 10547 10547 10548 10549 10550 10549 10549 10548 10548 10549 10548 10547 10547 10547 10547 10546 10545 10544 10543 10543 10543 10544 10544 10544 10544 10543 10542 10542 10541 10541 10541 10541 10541 10541 10541 10542 10542 10543 10543 10544 10544 10544
10543 10541 10539 10538 10538 10539 10539 10538 10537 10538 10537 10535 10534 10535 10535 10537 10537 10536 10535 10536 10536 10535 10534 10535 10533 10532 10531 10529 10529 10529 10529 10529 10530 10529 10529 10528 10528 10527 10527 10526 10526 10526 10526 10526 10526 10526 10527 10527 10527 10527 10527 10528
10531 10529 10527 10526 10526 10526 10526 10526 10528 10527 10525 10522 10521 10521 10521 10523 10523 10522 10522 10524 10524 10523 10522 10521 10519 10518 10517 10514 10515 10515 10515 10515 10515 10514 10513 10513 10512 10511 10511 10511 10510 10510 10510 10510 10510 10510 10510 10510 10511 10511 10511 10511
10518 10518 10516 10515 10515 10514 10514 10515 10516 10514 10512 10510 10508 10507 10507 10508 10508 10509 10510 10511 10511 10510 10508 10506 10504 10504 10502 10500 10500 10500 10500 10500 10499 10498 10497 10497 10496 10495 10495 10494 10494 10494 10494 10493 10493 10492 10493 10493 10493 10493 10493 10494
10507 10506 10504 10504 10503 10502 10502 10502 10502 10501 10499 10497 10495 10493 10493 10493 10494 10496 10497 10497 10496 10495 10492 10490 10489 10489 10488 10486 10485 10485 10484 10484 10483 10482 10481 10480 10479 10478 10478 10477 10477 10477 10477 10476 10475 10474 10475 10475 10475 10475 10475 10476
10494 10492 10491 10492 10491 10489 10488 10488 10488 10487 10485 10484 10482 10479 10478 10479 10481 10482 10483 10482 10480 10479 10476 10475 10474 10473 10473 10471 10470 10469 10468 10468 10466 10465 10464 10464 10463 10462 10461 10460 10460 10460 10458 10458 10456 10456 10457 10457 10457 10456 10456 10457
10481 10480 10480 10479 10477 10476 10475 10475 10473 10473 10472 10470 10467 10466 10465 10466 10467 10468 10467 10466 10464 10463 10461 10459 10458 10457 10457 10456 10454 10453 10452 10451 10450 10449 10449 10448 10447 10446 10445 10444 10444 10442 10442 10440 10439 10439 10439 10439 10439 10439 10438 10438
10468 10468 10468 10466 10464 10463 10463 10461 10460 10460 10458 10455 10454 10455 10453 10453 10452 10452 10451 10450 10450 10449 10447 10445 10444 10443 10443 10441 10439 10438 10436 10435 10434 10435 10434 10433 10432 10432 10430 10428 10428 10427 10426 10424 10423 10423 10421 10420 10422 10423 10422 10422
10457 10457 10456 10454 10453 10451 10450 10449 10448 10447 10443 10442 10445 10444 10441 10439 10438 10437 10435 10435 10435 10435 10434 10432 10431 10430 10429 10427 10425 10424 10422 10421 10420 10420 10420 10419 10419 10418 10415 10414 10414 10412 10411 10410 10409 10406 10404 10405 10406 10406 10406 10406
10445 10446 10444 10443 10442 10441 10440 10439 10435 10432 10430 10433 10434 10431 10428 10426 10424 10422 10421 10421 10421 10421 10421 10420 10418 10417 10415 10414 10412 10410 10409 10408 10405 10405 10406 10406 10406 10404 10401 10401 10400 10397 10396 10396 10395 10390 10389 10391 10391 10390 10390 10390
10434 10434 10433 10432 10432 10431 10429 10426 10422 10419 10420 10423 10422 10419 10417 10414 10410 10409 10409 10408 10408 10408 10407 10407 10405 10403 10401 10401 10400 10397 10396 10394 10391 10391 10392 10391 10391 10389 10388 10388 10386 10382 10381 10382 10379 10375 10376 10376 10374 10374 10375 10374